Regional Weather Roundup
Issued by NWS Kansas City/Pleasant Hill, MO

Home | Current Version | Previous Version | Text Only | Print | Product List | Glossary On
Versions: 1 2 3 4 5 6 7 8 9 10 11 12 13 14 15 16 17 18 19 20 21 22 23 24 25 26 27 28 29 30 31 32 33 34 35 36 37 38 39 40 41 42 43 44 45 46 47 48 49 50
000
ASUS43 KEAX 041710
RWREAX

WEATHER ROUNDUP FOR EASTERN KANSAS AND NORTHWEST MISSOURI
NATIONAL WEATHER SERVICE KANSAS CITY/PLEASANT HILL MO
1200 PM CDT TUE AUG 04 2015

KSZ040-057-103>105-MOZ028-029-037-043-041800-
...KANSAS CITY METROPOLITAN AREA...

CITY           SKY/WX    TMP DP  RH WIND       PRES   REMARKS
K.C. INTL      CLOUDY    82  73  74 NE16      30.01R
K.C. DOWNTOWN  CLOUDY    87  70  56 N6        29.99R HX  92
LEES SUMMIT    PTSUNNY   87  68  52 CALM      30.01R HX  90
OLATHE - IXD   PTSUNNY   87  68  52 W6        30.01R HX  90
OLATHE - OJC   CLOUDY    84  67  56 S6        30.00R
LAWRENCE       CLOUDY    84  72  67 E6        29.99S

$$

MOZ001>008-011>017-020>025-030>033-038>040-044>046-053-054-041800-
...NORTHERN AND CENTRAL MISSOURI...

CITY           SKY/WX    TMP DP  RH WIND       PRES   REMARKS
ST. JOSEPH     PTSUNNY   77  68  73 E10       30.02S
MOSBY          PTSUNNY   81  70  69 NE8G20    30.02R
WARRENSBURG      N/A    N/A N/A N/A CALM      30.00R
WHITEMAN AFB   PTSUNNY   88  67  51 VRB5      29.99R HX  91
CLINTON        CLOUDY    84  72  65 CALM      30.00S
SEDALIA        MOSUNNY   88  70  55 CALM      30.01S HX  93
WARSAW         NOT AVBL
CHILLICOTHE      N/A     74  67  78 E6        30.05F
KIRKSVILLE     TSTM      67  65  93 W3        30.11R

$$

MOZ041-047>049-056>058-063>065-088>090-097-041800-
...EASTERN AND SOUTHERN MISSOURI...

CITY           SKY/WX    TMP DP  RH WIND       PRES   REMARKS
ST. LOUIS INTL PTSUNNY   87  67  51 VRB3      29.99S HX  90
SPIRIT OF STL  PTSUNNY   85  71  63 CALM      29.98R HX  90
COLUMBIA       PTSUNNY   86  71  60 CALM      30.01R HX  91
JEFFERSON CITY PTSUNNY   84  71  65 CALM      29.99S
ROLLA          PTSUNNY   88  71  57 SW7       30.00S HX  94
OSAGE BEACH    PTSUNNY   86  70  58 SW3       30.00S HX  90
SPRINGFIELD    PTSUNNY   87  68  52 S10       30.00S HX  90
BRANSON        CLOUDY    86  68  54 S7        30.04S
JOPLIN         CLOUDY    84  68  58 SW14      30.01S
WEST PLAINS    PTSUNNY   88  67  49 SW8       30.04S HX  91

$$

IAZ060-094-KSZ022-034>040-054-083-096-NEZ052-066-093-041800-
...KANSAS...SOUTHEAST NEBRASKA AND IOWA...

CITY           SKY/WX    TMP DP  RH WIND       PRES   REMARKS
TOPEKA         CLOUDY    83  72  69 E7        29.98F
MANHATTAN      CLOUDY    87  71  58 E7        29.95F HX  93
EMPORIA        CLOUDY    81  70  69 SE7       29.97S
CHANUTE        CLOUDY    83  69  62 SW9       29.99S
WICHITA        LGT RAIN  76  69  79 S8        29.99R
OMAHA          CLOUDY    70  63  78 CALM      29.98F
LINCOLN        PTSUNNY   77  68  73 SE15      29.98F
FALLS CITY     PTSUNNY   76  68  76 E9        30.01F
LAMONI         LGT RAIN  67  64  90 S8        30.04R
DES MOINES     CLOUDY    73  59  61 CALM      30.05R

$$



USA.gov is the U.S. government's official web portal to all federal, state and local government web resources and services.